Back to catalog

OPS 4682 DEB

AlivePO
NORAD 38446·DEBRIS·🇺🇸 United States

Launched Apr 3, 1965 from Vandenberg Space Force Base

Loading…

Next Passes (next 24 hours)

TLE

FreshSource: Space-Track

Epoch: Sep 14, 2026, 08:02 UTC

1 38446U 65027FB  26257.33537312 -.00000395  00000-0 -13107-2 0  9997
2 38446  90.2744  30.1128 0018514 172.2891 187.8520 13.01376335598877

Track OPS 4682 DEB in real time with AllMySat

Download on the App Store